Weather History for Erie, CO

Change the Weather History Date:

Thursday, November 6, 2014

  Actual Average (KBJC) Record (KBJC)
Temperature  
Mean Temperature 47 °F -  
Max Temperature 68 °F 51 °F 75 °F (2010)
Min Temperature 26 °F 32 °F 14 °F (1993)
Degree Days  
Heating Degree Days 18    
Moisture  
Dew Point 27 °F    
Average Humidity 61    
Maximum Humidity 93    
Minimum Humidity 16    
Precipitation  
Precipitation 0.00 in - - ()
Sea Level Pressure  
Sea Level Pressure 30.30 in    
Wind  
Wind Speed 1 mph (SSE)    
Max Wind Speed 7 mph    
Max Gust Speed -    
Visibility 10 miles    
Events      
Averages and records for this station are not official NWS values.
T = Trace of Precipitation, MM = Missing Value Source: NWS Daily Summary

Daily Weather History Graph

Daily Weather History Graph

Search for Another Location

Airport:

Trip Planner

Search our weather history database for the weather conditions in past years. The results will help you decide how hot, cold, wet, or windy it might be!

Date:

Astronomy

Nov. 06, 2014 Rise Set
Actual Time 6:35 AM MST 4:52 PM MST
Civil Twilight 6:06 AM MST 5:20 PM MST
Nautical Twilight 5:34 AM MST 5:52 PM MST
Astronomical Twilight 5:02 AM MST 6:24 PM MST
Moon 5:01 PM MST (11/6) 6:09 AM MST (11/6)
Length of Visible Light 11h 13m
Length of Day
10h 17m
Full, 100% of the Moon is Illuminated
Nov 6
Full
Nov 6
Full
Nov 14
Last Quarter
Nov 22
New
Nov 29
First Quarter

Hourly Weather History & Observations

Time (MST) Temp. Windchill Dew Point Humidity Pressure Visibility Wind Dir Wind Speed Gust Speed Precip Events Conditions
12:15 AM 34.0 °F 31.0 °F 29.1 °F 82% 30.41 in 10.0 mi SSW 3.5 mph - N/A   Clear
12:35 AM 32.2 °F - 28.2 °F 85% 30.41 in 10.0 mi Calm Calm - N/A   Clear
12:55 AM 31.3 °F - 27.5 °F 86% 30.40 in 10.0 mi Calm Calm - N/A   Clear
1:15 AM 31.1 °F - 28.2 °F 89% 30.40 in 10.0 mi Calm Calm - N/A   Clear
1:35 AM 30.2 °F - 27.9 °F 91% 30.41 in 10.0 mi Calm Calm - N/A   Clear
1:55 AM 29.7 °F - 27.9 °F 93% 30.42 in 10.0 mi Calm Calm - N/A   Clear
2:15 AM 29.7 °F - 27.3 °F 91% 30.42 in 10.0 mi Calm Calm - N/A   Clear
2:35 AM 28.9 °F - 26.6 °F 91% 30.42 in 10.0 mi Calm Calm - N/A   Clear
2:55 AM 27.7 °F - 25.7 °F 92% 30.42 in 10.0 mi Calm Calm - N/A   Clear
3:15 AM 28.8 °F - 26.2 °F 90% 30.42 in 10.0 mi Calm Calm - N/A   Clear
3:35 AM 28.2 °F - 25.5 °F 90% 30.42 in 10.0 mi Calm Calm - N/A   Clear
3:55 AM 27.5 °F - 25.3 °F 92% 30.42 in 10.0 mi Calm Calm - N/A   Clear
4:15 AM 27.9 °F - 25.7 °F 92% 30.41 in 10.0 mi Calm Calm - N/A   Clear
4:35 AM 28.6 °F - 25.7 °F 89% 30.42 in 10.0 mi Calm Calm - N/A   Clear
4:55 AM 26.8 °F - 24.6 °F 92% 30.42 in 10.0 mi Calm Calm - N/A   Clear
5:15 AM 26.6 °F - 24.6 °F 92% 30.42 in 10.0 mi Calm Calm - N/A   Clear
5:35 AM 27.1 °F - 24.8 °F 91% 30.41 in 10.0 mi Calm Calm - N/A   Clear
5:55 AM 27.5 °F 23.6 °F 25.5 °F 92% 30.41 in 10.0 mi SSW 3.5 mph - N/A   Clear
6:15 AM 27.3 °F - 25.0 °F 91% 30.40 in 10.0 mi Calm Calm - N/A   Clear
6:35 AM 26.4 °F - 24.6 °F 93% 30.41 in 10.0 mi Calm Calm - N/A   Clear
6:55 AM 27.5 °F 23.6 °F 25.5 °F 92% 30.41 in 10.0 mi South 3.5 mph - N/A   Clear
7:15 AM 29.3 °F - 27.0 °F 91% 30.41 in 10.0 mi Calm Calm - N/A   Clear
7:55 AM 36.0 °F - 31.6 °F 84% 30.43 in 10.0 mi Calm Calm - N/A   Clear
8:15 AM 39.9 °F - 32.0 °F 73% 30.43 in 10.0 mi Calm Calm - N/A   Clear
8:35 AM 43.2 °F - 32.9 °F 67% 30.43 in 10.0 mi Calm Calm - N/A   Clear
8:55 AM 46.0 °F - 32.0 °F 58% 30.42 in 10.0 mi Calm Calm - N/A   Clear
9:15 AM 48.4 °F - 30.4 °F 50% 30.42 in 10.0 mi Calm Calm - N/A   Clear
9:35 AM 51.1 °F - 28.2 °F 41% 30.40 in 10.0 mi Calm Calm - N/A   Clear
9:55 AM 52.5 °F - 28.8 °F 40% 30.40 in 10.0 mi Calm Calm - N/A   Clear
10:15 AM 54.5 °F - 27.5 °F 35% 30.40 in 10.0 mi Calm Calm - N/A   Clear
10:35 AM 56.8 °F - 25.7 °F 30% 30.39 in 10.0 mi SE 3.5 mph - N/A   Clear
10:55 AM - - - N/A% - - North - - N/A   Unknown
11:15 AM - - - N/A% - - North - - N/A   Unknown
11:35 AM 60.6 °F - 25.7 °F 26% 30.36 in 10.0 mi Calm Calm - N/A   Clear
11:55 AM 61.0 °F - 25.0 °F 25% 30.34 in 10.0 mi Calm Calm - N/A   Clear
12:05 PM - - - N/A% - 10.0 mi North - - N/A   Clear
12:35 PM 64.6 °F - 20.3 °F 18% 30.31 in 10.0 mi Calm Calm - N/A   Clear
12:55 PM 65.8 °F - 17.4 °F 16% 30.30 in 10.0 mi SSE 5.8 mph - N/A   Clear
1:15 PM 67.1 °F - 18.7 °F 16% 30.29 in 10.0 mi SSE 6.9 mph - N/A   Clear
1:35 PM 67.3 °F - 19.9 °F 16% 30.28 in 10.0 mi SE 5.8 mph - N/A   Clear
1:55 PM 68.0 °F - 21.0 °F 17% 30.27 in 10.0 mi SE 6.9 mph - N/A   Clear
2:15 PM 68.2 °F - 22.1 °F 17% 30.26 in 10.0 mi SE 6.9 mph - N/A   Clear
2:35 PM 68.2 °F - 22.8 °F 18% 30.25 in 10.0 mi East 6.9 mph - N/A   Clear
2:55 PM 68.7 °F - 22.6 °F 18% 30.25 in 10.0 mi ESE 5.8 mph - N/A   Clear
3:15 PM 68.2 °F - 22.3 °F 18% 30.24 in 10.0 mi SE 4.6 mph - N/A   Clear
3:35 PM 67.8 °F - 22.6 °F 18% 30.23 in 10.0 mi ENE 3.5 mph - N/A   Clear
3:55 PM 67.5 °F - 23.7 °F 19% 30.23 in 10.0 mi Calm Calm - N/A   Clear
4:15 PM 65.5 °F - 24.6 °F 21% 30.23 in 10.0 mi East 3.5 mph - N/A   Clear
4:35 PM 62.8 °F - 25.7 °F 24% 30.22 in 10.0 mi East 3.5 mph - N/A   Clear
4:55 PM 57.6 °F - 27.0 °F 31% 30.22 in 10.0 mi Calm Calm - N/A   Clear
5:15 PM 52.5 °F - 27.9 °F 39% 30.21 in 10.0 mi Calm Calm - N/A   Clear
5:35 PM 49.8 °F - 28.6 °F 44% 30.21 in 10.0 mi Calm Calm - N/A   Clear
5:55 PM 45.7 °F - 28.8 °F 52% 30.21 in 10.0 mi Calm Calm - N/A   Clear
6:35 PM 44.4 °F - 28.8 °F 54% 30.19 in 10.0 mi Calm Calm - N/A   Clear
6:55 PM 42.8 °F - 29.3 °F 59% 30.19 in 10.0 mi Calm Calm - N/A   Clear
7:15 PM 40.5 °F - 28.4 °F 62% 30.18 in 10.0 mi Calm Calm - N/A   Clear
7:35 PM 40.6 °F 38.6 °F 29.1 °F 64% 30.17 in 10.0 mi SSW 3.5 mph - N/A   Clear
7:55 PM 38.3 °F - 28.6 °F 68% 30.17 in 10.0 mi Calm Calm - N/A   Clear
8:15 PM 37.2 °F - 28.2 °F 70% 30.16 in 10.0 mi Calm Calm - N/A   Clear
8:35 PM 37.6 °F 35.1 °F 28.4 °F 69% 30.15 in 10.0 mi South 3.5 mph - N/A   Clear
8:55 PM 37.0 °F - 27.9 °F 69% 30.14 in 10.0 mi Calm Calm - N/A   Clear
9:15 PM 36.5 °F 33.9 °F 28.4 °F 72% 30.13 in 10.0 mi South 3.5 mph - N/A   Clear
9:35 PM 36.3 °F 33.7 °F 28.0 °F 72% 30.13 in 10.0 mi WSW 3.5 mph - N/A   Clear
9:55 PM 36.0 °F - 28.4 °F 74% 30.13 in 10.0 mi Calm Calm - N/A   Clear
10:15 PM 37.6 °F - 28.4 °F 69% 30.12 in 10.0 mi Calm Calm - N/A   Clear
10:35 PM 37.2 °F - 28.6 °F 71% 30.12 in 10.0 mi Calm Calm - N/A   Clear
10:55 PM 35.4 °F - 29.1 °F 78% 30.12 in 10.0 mi Calm Calm - N/A   Clear
11:15 PM 34.9 °F - 28.9 °F 79% 30.11 in 10.0 mi Calm Calm - N/A   Clear
11:35 PM 35.6 °F - 28.8 °F 76% 30.10 in 10.0 mi Calm Calm - N/A   Clear
11:55 PM 36.1 °F 33.5 °F 29.7 °F 77% 30.09 in 10.0 mi SSW 3.5 mph - N/A   Clear